THOR ABLESTAR DEB, 653

Orbit data source: Space-Track

THOR ABLESTAR DEB, 653 is space debris in LEO originally from a launch on Thu, 29 Jun 1961 UTC launched from the Air Force Eastern Test Range (AFETR). Debris objects in space refer to the collection of defunct objects orbiting the Earth. Examples of debris include non-operational satellites, rocket bodies, and fragments generated from explosions, collisions, or faulty payload assembly.

Loading next visibility...
Identifier
653, 1961-015HE
Orbit
LEO
Country
Flag of USUS
Related business
Manufacturer
Unknown
Mission
Spacecraft
Bus & Motor
Unknown
Mass
Unknown
Launch date (UTC)
1961-06-29 (65 years ago)
Launch vehicle
Unknown
Launch site
Air Force Eastern Test Range (AFETR)
Object type
Payload
Rocket body
Debris
Shape & HBR
Unknown shape, 0.1 m
Radar Cross Section
Small (<0.1 m²)

Expand to show TLE details & history
Last TLE update: 2 days ago

TLE from 2 days ago
0 THOR ABLESTAR DEB
1 00653U 61015HE  26121.85537947  .00000411  00000-0  49704-3 0  9990
2 00653  67.4490 275.3493 0155817  13.3672 134.4720 13.70367787211530
Epoch: 2026-05-01T20:31Z
TLE epoch observation values (Epoch: 2026-05-01T20:31:44.786Z)
Latitude
28.37147°
Longitude
-85.2609°
Altitude
1,082.378 km
Speed
7.273 km/s
True Right ascension
05h 29m 49s
True Declination
28° 14' 03"
Sunlit
Object was in daylight at epoch
Visualization orbit readout
Latitude
Unknown
Longitude
Unknown
Altitude
Unknown
Speed
Unknown
Apparent Right ascension
Unknown
Apparent Declination
Unknown
Sunlit
N/A
Visualization observer readout
Local Sidereal Time
05:44:11
Azimuth
Unknown
Elevation
Unknown
Doppler factor
Unknown
Orbital elements
Apogee altitude
1,111.498 km
Perigee altitude
881.676 km
Semi-major axis
7,374.724 km
Eccentricity
0.01558
Inclination
67.449°
RAAN
275.3493°
Arg. of periapsis
13.3672°
True anomaly
135.72888°
Mean anomaly
134.472°
Eccentric anomaly
135.10215°
Mean motion
3.42708 °/min
Orbital period
105.05 mins
BSTAR
0.00049704
Loading maneuver chart data...
Computing Atmospheric mass density...
Loading historical data...
Loading historical data...
Loading historical data...
Loading historical data...
Loading historical data...
Loading historical data...
Loading historical data...

Documentation

Showing up to 5 results
|